When you browse on this site, cookies collect data to enhance your experience and personalize the content and advertising you see.
Visit our Privacy Policy to learn more. By continuing to use the site, you agree to this use of cookies and data.
  • In Czech Republic
  • List of Countries
  • For 7 days
  • Water Temperature
  • Weather Map
  • Weather Widgets
  • user-avatar
    Login

    Hourly Weather Tulagino

    Today, 2 June, Tuesday

    Time Temperature Precipitation Wind Pressure Humidity
    00:00 +10°C° 0 mm 1 mps 748 mmHg 54%
    01:00 +9°C° 0 mm 1 mps 748 mmHg 56%
    02:00 +8°C° 0 mm 1 mps 748 mmHg 57%
    03:00 +8°C° 0 mm 1 mps 748 mmHg 58%
    04:00 +9°C° 0 mm 1 mps 748 mmHg 54%
    05:00 +11°C° 0 mm 1 mps 748 mmHg 51%
    06:00 +11°C° 0 mm 0 mps 748 mmHg 47%
    07:00 +14°C° 0 mm 1 mps 748 mmHg 42%
    08:00 +18°C° 0 mm 1 mps 748 mmHg 37%
    09:00 +20°C° 0 mm 1 mps 748 mmHg 31%
    10:00 +21°C° 0 mm 1 mps 748 mmHg 28%
    11:00 +22°C° 0 mm 1 mps 748 mmHg 26%
    12:00 +24°C° 0 mm 1 mps 747 mmHg 24%
    13:00 +24°C° 0 mm 1 mps 747 mmHg 24%
    14:00 +24°C° 0 mm 1 mps 747 mmHg 24%
    15:00 +23°C° 0 mm 1 mps 747 mmHg 27%
    16:00 +22°C° 0 mm 1 mps 747 mmHg 28%
    17:00 +22°C° 0 mm 1 mps 747 mmHg 29%
    18:00 +21°C° 0 mm 2 mps 747 mmHg 31%
    19:00 +19°C° 0 mm 2 mps 747 mmHg 38%
    20:00 +17°C° 0 mm 2 mps 747 mmHg 45%
    21:00 +15°C° 0 mm 2 mps 748 mmHg 52%
    22:00 +14°C° 0 mm 1 mps 748 mmHg 58%
    23:00 +12°C° 0 mm 1 mps 748 mmHg 64%

    Tomorrow, 3 June, Wednesday

    Time Temperature Precipitation Wind Pressure Humidity
    00:00 +10°C° 0 mm 1 mps 748 mmHg 70%
    01:00 +10°C° 0 mm 1 mps 748 mmHg 73%
    02:00 +8°C° 0 mm 0 mps 748 mmHg 76%
    03:00 +8°C° 0 mm 0 mps 749 mmHg 79%
    04:00 +9°C° 0 mm 0 mps 749 mmHg 73%
    05:00 +12°C° 0 mm 1 mps 749 mmHg 66%
    06:00 +14°C° 0 mm 1 mps 749 mmHg 60%
    07:00 +16°C° 0 mm 1 mps 749 mmHg 54%
    08:00 +19°C° 0 mm 1 mps 749 mmHg 48%
    09:00 +21°C° 0 mm 1 mps 749 mmHg 42%
    10:00 +22°C° 0 mm 1 mps 749 mmHg 38%
    11:00 +23°C° 0 mm 1 mps 749 mmHg 34%
    12:00 +24°C° 0 mm 1 mps 748 mmHg 30%
    13:00 +24°C° 0 mm 1 mps 748 mmHg 30%
    14:00 +24°C° 0 mm 1 mps 748 mmHg 29%
    15:00 +24°C° 0 mm 1 mps 748 mmHg 29%
    16:00 +24°C° 0 mm 1 mps 748 mmHg 29%
    17:00 +24°C° 0 mm 1 mps 748 mmHg 29%
    18:00 +23°C° 0 mm 1 mps 748 mmHg 30%
    19:00 +22°C° 0 mm 1 mps 748 mmHg 37%
    20:00 +20°C° 0 mm 1 mps 748 mmHg 44%
    21:00 +18°C° 0 mm 1 mps 748 mmHg 51%
    22:00 +15°C° 0 mm 1 mps 748 mmHg 54%
    23:00 +14°C° 0 mm 1 mps 748 mmHg 57%

    Day after tomorrow, 4 June, Thursday

    Time Temperature Precipitation Wind Pressure Humidity
    00:00 +13°C° 0 mm 1 mps 748 mmHg 59%
    01:00 +12°C° 0 mm 1 mps 749 mmHg 62%
    02:00 +11°C° 0 mm 0 mps 749 mmHg 65%
    03:00 +10°C° 0 mm 0 mps 749 mmHg 68%
    04:00 +12°C° 0.1 mm 0 mps 749 mmHg 65%
    05:00 +13°C° 0.1 mm 0 mps 749 mmHg 63%
    06:00 +15°C° 0.1 mm 0 mps 749 mmHg 61%
    07:00 +17°C° 0.1 mm 0 mps 749 mmHg 54%
    08:00 +19°C° 0.1 mm 0 mps 749 mmHg 48%
    09:00 +21°C° 0.1 mm 0 mps 749 mmHg 41%
    10:00 +22°C° 0 mm 0 mps 749 mmHg 37%
    11:00 +22°C° 0 mm 0 mps 749 mmHg 33%
    12:00 +23°C° 0 mm 0 mps 748 mmHg 29%
    13:00 +23°C° 0 mm 0 mps 748 mmHg 29%
    14:00 +25°C° 0 mm 1 mps 748 mmHg 30%
    15:00 +25°C° 0 mm 1 mps 748 mmHg 30%
    16:00 +24°C° 0 mm 1 mps 748 mmHg 33%
    17:00 +23°C° 0 mm 2 mps 748 mmHg 36%
    18:00 +23°C° 0 mm 2 mps 748 mmHg 39%
    19:00 +20°C° 0.2 mm 2 mps 748 mmHg 49%
    20:00 +18°C° 0.2 mm 2 mps 748 mmHg 59%
    21:00 +16°C° 0.2 mm 2 mps 748 mmHg 69%
    22:00 +15°C° 0.4 mm 2 mps 749 mmHg 74%
    23:00 +13°C° 0.4 mm 2 mps 749 mmHg 79%

    5 June, Friday

    Time Temperature Precipitation Wind Pressure Humidity
    00:00 +12°C° 0.4 mm 2 mps 749 mmHg 84%
    01:00 +12°C° 0.3 mm 2 mps 749 mmHg 86%
    02:00 +10°C° 0.3 mm 2 mps 750 mmHg 87%
    03:00 +9°C° 0.3 mm 2 mps 750 mmHg 88%
    04:00 +10°C° 0.1 mm 2 mps 750 mmHg 85%
    05:00 +12°C° 0.1 mm 1 mps 750 mmHg 81%
    06:00 +13°C° 0.1 mm 1 mps 750 mmHg 78%
    07:00 +14°C° 0 mm 2 mps 750 mmHg 70%
    08:00 +16°C° 0 mm 2 mps 750 mmHg 62%
    09:00 +17°C° 0 mm 2 mps 750 mmHg 54%
    10:00 +18°C° 0 mm 3 mps 750 mmHg 49%
    11:00 +19°C° 0 mm 3 mps 750 mmHg 45%
    12:00 +20°C° 0 mm 3 mps 750 mmHg 40%
    13:00 +20°C° 0 mm 3 mps 750 mmHg 39%
    14:00 +20°C° 0 mm 3 mps 749 mmHg 38%
    15:00 +20°C° 0 mm 2 mps 749 mmHg 37%
    16:00 +20°C° 0 mm 2 mps 749 mmHg 37%
    17:00 +20°C° 0 mm 2 mps 749 mmHg 38%
    18:00 +19°C° 0 mm 2 mps 749 mmHg 39%
    19:00 +18°C° 0 mm 2 mps 749 mmHg 44%
    20:00 +17°C° 0 mm 2 mps 749 mmHg 49%
    21:00 +15°C° 0 mm 2 mps 749 mmHg 55%
    22:00 +14°C° 0 mm 2 mps 750 mmHg 55%
    23:00 +13°C° 0 mm 2 mps 750 mmHg 54%

    6 June, Saturday

    Time Temperature Precipitation Wind Pressure Humidity
    00:00 +13°C° 0 mm 2 mps 750 mmHg 54%
    01:00 +12°C° 0 mm 2 mps 750 mmHg 58%
    02:00 +12°C° 0 mm 2 mps 750 mmHg 62%
    03:00 +12°C° 0 mm 2 mps 750 mmHg 66%
    04:00 +11°C° 0 mm 3 mps 750 mmHg 67%
    05:00 +12°C° 0 mm 3 mps 750 mmHg 68%
    06:00 +12°C° 0 mm 3 mps 750 mmHg 70%
    07:00 +13°C° 0 mm 3 mps 750 mmHg 66%
    08:00 +13°C° 0 mm 3 mps 750 mmHg 63%
    09:00 +14°C° 0 mm 3 mps 750 mmHg 60%
    10:00 +15°C° 0 mm 4 mps 750 mmHg 58%
    11:00 +15°C° 0 mm 4 mps 750 mmHg 56%
    12:00 +17°C° 0 mm 4 mps 750 mmHg 54%
    13:00 +18°C° 0 mm 4 mps 749 mmHg 50%
    14:00 +19°C° 0 mm 4 mps 749 mmHg 47%
    15:00 +19°C° 0 mm 3 mps 749 mmHg 44%
    16:00 +19°C° 0.1 mm 3 mps 748 mmHg 47%
    17:00 +19°C° 0.1 mm 3 mps 748 mmHg 50%
    18:00 +18°C° 0.1 mm 3 mps 748 mmHg 53%
    19:00 +17°C° 0.1 mm 3 mps 748 mmHg 60%
    20:00 +16°C° 0.1 mm 3 mps 748 mmHg 67%
    21:00 +14°C° 0.1 mm 3 mps 749 mmHg 75%
    22:00 +13°C° 0 mm 3 mps 749 mmHg 78%
    23:00 +12°C° 0 mm 3 mps 749 mmHg 82%

    7 June, Sunday

    Time Temperature Precipitation Wind Pressure Humidity
    00:00 +11°C° 0 mm 3 mps 749 mmHg 86%
    01:00 +10°C° 0 mm 3 mps 749 mmHg 86%
    02:00 +9°C° 0 mm 3 mps 749 mmHg 86%
    03:00 +8°C° 0 mm 3 mps 749 mmHg 86%
    04:00 +9°C° 0 mm 3 mps 749 mmHg 82%
    05:00 +10°C° 0 mm 4 mps 749 mmHg 79%
    06:00 +11°C° 0 mm 4 mps 749 mmHg 75%
    07:00 +13°C° 0 mm 4 mps 749 mmHg 68%
    08:00 +14°C° 0 mm 5 mps 749 mmHg 61%
    09:00 +16°C° 0 mm 5 mps 748 mmHg 54%
    10:00 +19°C° 0 mm 5 mps 748 mmHg 49%
    11:00 +20°C° 0 mm 5 mps 748 mmHg 45%
    12:00 +21°C° 0 mm 5 mps 747 mmHg 41%
    13:00 +22°C° 0 mm 5 mps 747 mmHg 39%
    14:00 +23°C° 0 mm 5 mps 746 mmHg 37%
    15:00 +23°C° 0 mm 5 mps 746 mmHg 36%
    16:00 +23°C° 0 mm 5 mps 746 mmHg 37%
    17:00 +22°C° 0 mm 6 mps 745 mmHg 39%
    18:00 +22°C° 0 mm 6 mps 745 mmHg 41%
    19:00 +20°C° 0 mm 6 mps 745 mmHg 45%
    20:00 +19°C° 0 mm 5 mps 746 mmHg 49%
    21:00 +17°C° 0 mm 5 mps 746 mmHg 53%
    22:00 +16°C° 0 mm 5 mps 746 mmHg 56%
    23:00 +15°C° 0 mm 5 mps 746 mmHg 59%
    Show more